Starlink 33848

operational
NORAD ID: 63705 Int'l Des: 2025-087 Owner: SPXS Country: US Constellation: starlink
LEOCIRCULAR

About Starlink 33848

Description loading...

Live Position

Loading 3D Globe...

Upcoming Passes

Altitude History

Altitude vs Time

uPlot chart will show altitude changes over time

Two-Line Element Set

1 63705U 25087J 25258.46215597 .00041808 00000-0 14138-2 0 9994
2 63705 53.1578 313.3213 0002035 62.0667 298.0539 15.30245156 22366
Epoch: Sep 15, 2025 • Age: 19 hours

Current Status

Altitude 490.2 km
Velocity 7.62 km/s
Sub-Earth Point -43.27°S, 174.93°W
Launch Date Apr 28, 2025
Age 0.3 years
Type internet

Technical Details

Classification Payload
Mass 575.00 kg
Dry Mass 530.00 kg
Total Mass 575.00 kg
Length 0.30 m
Diameter 4.10 m
Span 29.00 m
Shape Box + pan
Manufacturer SPXS
Bus Type Starlink V2MO
Phase Status In Orbit
Owner/State SPXS/US

Large Constellations

Loading constellations...